Terminal Aerodrome Forecast
Issued by NWS

Home | Current Version | Previous Version | Text Only | Print | Product List | Glossary On
Versions: 1 2 3 4 5 6 7 8 9 10 11 12 13 14 15 16 17 18 19
000
FTUS43 KDLH 230531
TAFBRD
TAF
KBRD 230531Z 2306/2406 02013KT P6SM BKN090 OVC110
     FM230900 02006KT P6SM VCSH BKN025
     FM231100 03007KT 6SM -SHRA OVC015
     FM231700 06009KT P6SM OVC020
     FM232300 06009KT P6SM BKN035
     FM240300 07008KT P6SM BKN025=

USA.gov is the U.S. government's official web portal to all federal, state and local government web resources and services.